QPF
0.01 0.01 0.01 0.02 0.03 0.03 0.02 0.01 0.01 0.02 0.02 0.02 0.02 0.02 0.02 0.02 0.03 0.04 0.04 0.04 0.04 0.05 0.06 0.08 0.11 0.16 0.21 0.26 0.29 0.29 0.26 0.21 0.20 0.20 0.17 0.14 0.12 0.11 0.12 0.09 0.07 0.06 0.04
0.00 0.01 0.01 0.02 0.03 0.03 0.02 0.01 0.01 0.01 0.01 0.01 0.01 0.02 0.03 0.03 0.03 0.04 0.03 0.04 0.03 0.03 0.05 0.08 0.12 0.14 0.16 0.17 0.18 0.17 0.15 0.12 0.13 0.15 0.16 0.15 0.13 0.13 0.12 0.08 0.06 0.04 0.02
0.01 0.01 0.01 0.01 0.02 0.02 0.02 0.02 0.01 0.01 0.01 0.01 0.01 0.02 0.02 0.03 0.04 0.05 0.05 0.04 0.04 0.04 0.06 0.07 0.10 0.11 0.11 0.11 0.11 0.10 0.10 0.10 0.10 0.11 0.13 0.13 0.13 0.12 0.10 0.07 0.05 0.03 0.02
0.01 0.01 0.01 0.01 0.02 0.02 0.01 0.01 0.02 0.02 0.01 0.01 0.01 0.01 0.02 0.03 0.04 0.06 0.07 0.06 0.04 0.04 0.05 0.06 0.07 0.07 0.07 0.06 0.06 0.06 0.07 0.07 0.08 0.08 0.07 0.08 0.08 0.07 0.07 0.06 0.04 0.02 0.01
0.02 0.02 0.02 0.02 0.02 0.02 0.02 0.02 0.02 0.02 0.02 0.02 0.02 0.02 0.02 0.03 0.05 0.06 0.07 0.08 0.07 0.05 0.04 0.04 0.04 0.05 0.05 0.05 0.04 0.04 0.04 0.05 0.05 0.05 0.05 0.05 0.05 0.05 0.05 0.04 0.02 0.01 0.01
0.02 0.03 0.02 0.02 0.02 0.03 0.03 0.03 0.03 0.03 0.02 0.02 0.02 0.02 0.03 0.04 0.06 0.07 0.06 0.08 0.08 0.05 0.04 0.04 0.03 0.03 0.03 0.03 0.04 0.03 0.03 0.03 0.03 0.03 0.03 0.03 0.03 0.03 0.02 0.02 0.01 0.01 0.00
0.02 0.03 0.03 0.03 0.02 0.03 0.04 0.05 0.04 0.04 0.03 0.04 0.04 0.04 0.05 0.05 0.06 0.06 0.06 0.08 0.08 0.06 0.04 0.03 0.03 0.03 0.03 0.02 0.02 0.02 0.02 0.02 0.02 0.02 0.02 0.02 0.02 0.01 0.01 0.01 0.00 0.00 0.00
0.02 0.01 0.02 0.03 0.04 0.04 0.05 0.04 0.04 0.03 0.04 0.04 0.05 0.05 0.06 0.07 0.08 0.06 0.05 0.05 0.06 0.06 0.05 0.04 0.04 0.04 0.03 0.03 0.02 0.02 0.02 0.02 0.02 0.01 0.01 0.01 0.01 0.01 0.00 0.00 0.01 0.00 0.00
0.01 0.02 0.02 0.04 0.05 0.05 0.05 0.04 0.04 0.04 0.04 0.04 0.05 0.06 0.06 0.06 0.07 0.05 0.04 0.03 0.04 0.04 0.04 0.05 0.04 0.03 0.03 0.03 0.02 0.02 0.02 0.01 0.01 0.01 0.01 0.01 0.00 0.00 0.00 0.00 0.00 0.00 0.00
0.02 0.02 0.02 0.03 0.04 0.04 0.04 0.04 0.04 0.05 0.05 0.04 0.04 0.05 0.05 0.05 0.04 0.03 0.03 0.03 0.03 0.02 0.02 0.02 0.01 0.01 0.01 0.01 0.01 0.00 0.00 0.00 0.00 0.01 0.01 0.00 0.00 0.00 0.00 0.00 0.00 0.00 0.00
0.02 0.02 0.03 0.03 0.03 0.03 0.03 0.04 0.04 0.04 0.04 0.03 0.03 0.03 0.03 0.03 0.02 0.02 0.02 0.01 0.01 0.01 0.01 0.01 0.00 0.00 0.00 0.00 0.00 0.00 0.00 0.00 0.00 0.00 0.00 0.00 0.00 0.00 0.00 0.00 0.00 0.00 0.00
0.02 0.03 0.04 0.05 0.05 0.04 0.03 0.04 0.04 0.04 0.04 0.03 0.02 0.01 0.01 0.01 0.00 0.00 0.00 0.00 0.00 0.00 0.00 0.00 0.00 0.00 0.00 0.00 0.00 0.00 0.00 0.00 0.00 0.00 0.00 0.00 0.00 0.00 0.00 0.00 0.00 0.00 0.00
0.03 0.03 0.04 0.05 0.06 0.05 0.04 0.04 0.05 0.04 0.03 0.02 0.01 0.01 0.00 0.00 0.00 0.00 0.00 0.00 0.00 0.00 0.00 0.00 0.00 0.00 0.00 0.00 0.00 0.00 0.00 0.00 0.00 0.00 0.00 0.00 0.00 0.00 0.00 0.00 0.00 0.00 0.00
0.03 0.04 0.05 0.05 0.04 0.04 0.04 0.04 0.05 0.04 0.02 0.01 0.01 0.00 0.00 0.00 0.00 0.00 0.00 0.00 0.00 0.00 0.00 0.00 0.00 0.00 0.00 0.00 0.00 0.00 0.00 0.00 0.00 0.00 0.00 0.00 0.00 0.00 0.00 0.00 0.00 0.00 0.00
0.03 0.03 0.04 0.03 0.03 0.03 0.03 0.03 0.04 0.03 0.02 0.01 0.00 0.00 0.00 0.00 0.00 0.00 0.00 0.00 0.00 0.00 0.00 0.00 0.00 0.00 0.00 0.00 0.00 0.00 0.00 0.00 0.00 0.00 0.00 0.00 0.00 0.00 0.00 0.00 0.00 0.00 0.00
0.03 0.03 0.03 0.02 0.02 0.03 0.03 0.03 0.03 0.02 0.01 0.01 0.00 0.00 0.00 0.00 0.00 0.00 0.00 0.00 0.00 0.00 0.00 0.00 0.00 0.00 0.00 0.00 0.00 0.00 0.00 0.00 0.00 0.00 0.00 0.00 0.00 0.00 0.00 0.00 0.00 0.00 0.00
0.02 0.02 0.02 0.01 0.01 0.02 0.02 0.02 0.02 0.02 0.01 0.00 0.00 0.00 0.00 0.00 0.00 0.00 0.00 0.00 0.00 0.00 0.00 0.00 0.00 0.00 0.00 0.00 0.00 0.00 0.00 0.00 0.00 0.00 0.00 0.00 0.00 0.00 0.00 0.00 0.00 0.00 0.00
0.01 0.01 0.01 0.01 0.01 0.01 0.01 0.01 0.01 0.01 0.00 0.00 0.00 0.00 0.00 0.00 0.00 0.00 0.00 0.00 0.00 0.00 0.00 0.00 0.00 0.00 0.00 0.00 0.00 0.00 0.00 0.00 0.00 0.00 0.00 0.00 0.00 0.00 0.00 0.00 0.00 0.00 0.00
0.01 0.01 0.00 0.00 0.00 0.01 0.01 0.00 0.00 0.00 0.00 0.00 0.00 0.00 0.00 0.00 0.00 0.00 0.00 0.00 0.00 0.00 0.00 0.00 0.00 0.00 0.00 0.00 0.00 0.00 0.00 0.00 0.00 0.00 0.00 0.00 0.00 0.00 0.00 0.00 0.00 0.00 0.00
0.01 0.01 0.00 0.00 0.00 0.00 0.00 0.00 0.00 0.00 0.00 0.00 0.00 0.00 0.00 0.00 0.00 0.00 0.00 0.00 0.00 0.00 0.00 0.00 0.00 0.00 0.00 0.00 0.00 0.00 0.00 0.00 0.00 0.00 0.00 0.00 0.00 0.00 0.00 0.00 0.00 0.00 0.00
0.00 0.00 0.00 0.00 0.00 0.00 0.00 0.00 0.00 0.00 0.00 0.00 0.00 0.00 0.00 0.00 0.00 0.00 0.00 0.00 0.00 0.00 0.00 0.00 0.00 0.00 0.00 0.00 0.00 0.00 0.00 0.00 0.00 0.00 0.00 0.00 0.00 0.00 0.00 0.00 0.00 0.00 0.00
0.00 0.00 0.00 0.00 0.00 0.00 0.00 0.00 0.00 0.00 0.00 0.00 0.00 0.00 0.00 0.00 0.00 0.00 0.00 0.00 0.00 0.00 0.00 0.00 0.00 0.00 0.00 0.00 0.00 0.00 0.00 0.00 0.00 0.00 0.00 0.00 0.00 0.00 0.00 0.00 0.00 0.00 0.00
0.00 0.00 0.00 0.00 0.00 0.00 0.00 0.00 0.00 0.00 0.00 0.00 0.00 0.00 0.00 0.00 0.00 0.00 0.00 0.00 0.00 0.00 0.00 0.00 0.00 0.00 0.00 0.00 0.00 0.00 0.00 0.00 0.00 0.00 0.00 0.00 0.00 0.00 0.00 0.00 0.00 0.00 0.00
0.00 0.00 0.00 0.00 0.00 0.00 0.00 0.00 0.00 0.00 0.00 0.00 0.00 0.00 0.00 0.00 0.00 0.00 0.00 0.00 0.00 0.00 0.00 0.00 0.00 0.00 0.00 0.00 0.00 0.00 0.00 0.00 0.00 0.00 0.00 0.00 0.00 0.00 0.00 0.00 0.00 0.00 0.00
0.00 0.00 0.00 0.00 0.00 0.00 0.00 0.00 0.00 0.00 0.00 0.00 0.00 0.00 0.00 0.00 0.00 0.00 0.00 0.00 0.00 0.00 0.00 0.00 0.00 0.00 0.00 0.00 0.00 0.00 0.00 0.00 0.00 0.00 0.00 0.00 0.00 0.00 0.00 0.00 0.00 0.00 0.00
0.00 0.00 0.00 0.00 0.00 0.00 0.00 0.00 0.00 0.00 0.00 0.00 0.00 0.00 0.00 0.00 0.00 0.00 0.00 0.00 0.00 0.00 0.00 0.00 0.00 0.00 0.00 0.00 0.00 0.00 0.00 0.00 0.00 0.00 0.00 0.00 0.00 0.00 0.00 0.00 0.00 0.00 0.00
MSLP
1016.56 1016.46 1016.51 1016.69 1016.93 1017.19 1017.41 1017.55 1017.58 1017.49 1017.28 1016.97 1016.58 1016.13 1015.67 1015.21 1014.78 1014.40 1014.08 1013.84 1013.69 1013.65 1013.72 1013.92 1014.26 1014.74 1015.37 1016.15 1017.04 1018.03 1019.08 1020.16 1021.20 1022.18 1023.04 1023.77 1024.34 1024.77 1025.06 1025.23 1025.34 1025.41 1025.47
1017.15 1017.06 1017.10 1017.23 1017.42 1017.60 1017.74 1017.80 1017.75 1017.58 1017.30 1016.94 1016.52 1016.07 1015.62 1015.19 1014.81 1014.49 1014.23 1014.06 1013.98 1013.98 1014.09 1014.31 1014.64 1015.11 1015.71 1016.43 1017.28 1018.22 1019.22 1020.25 1021.26 1022.21 1023.05 1023.76 1024.31 1024.72 1024.98 1025.14 1025.21 1025.25 1025.27
1017.64 1017.56 1017.58 1017.66 1017.78 1017.88 1017.94 1017.91 1017.79 1017.57 1017.27 1016.90 1016.49 1016.08 1015.69 1015.34 1015.05 1014.82 1014.67 1014.59 1014.59 1014.66 1014.82 1015.06 1015.40 1015.84 1016.39 1017.05 1017.82 1018.67 1019.59 1020.54 1021.47 1022.35 1023.13 1023.80 1024.32 1024.70 1024.94 1025.08 1025.14 1025.15 1025.15
1017.97 1017.91 1017.90 1017.94 1018.00 1018.03 1018.01 1017.93 1017.77 1017.54 1017.25 1016.92 1016.58 1016.25 1015.95 1015.71 1015.53 1015.42 1015.38 1015.40 1015.48 1015.62 1015.82 1016.09 1016.42 1016.82 1017.31 1017.90 1018.57 1019.31 1020.12 1020.95 1021.78 1022.57 1023.28 1023.89 1024.37 1024.73 1024.97 1025.10 1025.15 1025.16 1025.14
1018.16 1018.11 1018.09 1018.10 1018.10 1018.09 1018.03 1017.92 1017.76 1017.55 1017.31 1017.06 1016.82 1016.60 1016.42 1016.30 1016.24 1016.24 1016.30 1016.40 1016.56 1016.75 1016.98 1017.25 1017.56 1017.93 1018.36 1018.85 1019.42 1020.04 1020.72 1021.43 1022.14 1022.83 1023.46 1024.02 1024.47 1024.81 1025.05 1025.20 1025.26 1025.28 1025.25
1018.22 1018.20 1018.19 1018.18 1018.16 1018.12 1018.05 1017.95 1017.82 1017.68 1017.52 1017.37 1017.24 1017.14 1017.08 1017.07 1017.11 1017.19 1017.32 1017.49 1017.69 1017.91 1018.15 1018.42 1018.71 1019.03 1019.39 1019.81 1020.27 1020.78 1021.33 1021.92 1022.52 1023.11 1023.67 1024.17 1024.59 1024.93 1025.18 1025.35 1025.44 1025.47 1025.46
1018.25 1018.25 1018.25 1018.25 1018.23 1018.20 1018.15 1018.09 1018.02 1017.95 1017.89 1017.85 1017.83 1017.83 1017.87 1017.94 1018.05 1018.19 1018.36 1018.55 1018.77 1019.00 1019.24 1019.49 1019.76 1020.04 1020.34 1020.68 1021.05 1021.46 1021.91 1022.38 1022.88 1023.39 1023.87 1024.32 1024.72 1025.06 1025.33 1025.52 1025.64 1025.70 1025.69
1018.31 1018.34 1018.37 1018.38 1018.38 1018.38 1018.38 1018.37 1018.38 1018.39 1018.42 1018.47 1018.54 1018.62 1018.72 1018.84 1018.98 1019.14 1019.32 1019.51 1019.72 1019.95 1020.18 1020.41 1020.65 1020.90 1021.16 1021.44 1021.74 1022.07 1022.43 1022.82 1023.23 1023.65 1024.07 1024.48 1024.85 1025.18 1025.45 1025.66 1025.81 1025.89 1025.90
1018.46 1018.53 1018.58 1018.63 1018.67 1018.71 1018.76 1018.82 1018.89 1018.98 1019.09 1019.20 1019.32 1019.45 1019.58 1019.71 1019.85 1020.00 1020.16 1020.34 1020.54 1020.75 1020.96 1021.19 1021.42 1021.65 1021.88 1022.12 1022.37 1022.64 1022.92 1023.24 1023.57 1023.92 1024.28 1024.64 1024.98 1025.29 1025.55 1025.76 1025.91 1026.00 1026.03
1018.73 1018.83 1018.92 1019.01 1019.10 1019.19 1019.30 1019.41 1019.55 1019.69 1019.85 1020.00 1020.14 1020.28 1020.40 1020.52 1020.64 1020.76 1020.90 1021.06 1021.24 1021.44 1021.65 1021.87 1022.10 1022.32 1022.54 1022.76 1022.98 1023.20 1023.43 1023.68 1023.95 1024.23 1024.53 1024.82 1025.11 1025.38 1025.61 1025.80 1025.94 1026.02 1026.05
1019.11 1019.25 1019.38 1019.51 1019.65 1019.80 1019.96 1020.13 1020.31 1020.49 1020.66 1020.82 1020.96 1021.08 1021.18 1021.27 1021.35 1021.45 1021.56 1021.70 1021.87 1022.07 1022.29 1022.52 1022.76 1022.99 1023.20 1023.41 1023.60 1023.79 1023.97 1024.17 1024.37 1024.59 1024.82 1025.05 1025.28 1025.49 1025.67 1025.81 1025.91 1025.96 1025.97
1019.58 1019.75 1019.92 1020.10 1020.30 1020.50 1020.71 1020.92 1021.13 1021.33 1021.51 1021.66 1021.77 1021.86 1021.92 1021.97 1022.02 1022.09 1022.18 1022.32 1022.49 1022.70 1022.93 1023.18 1023.43 1023.66 1023.88 1024.08 1024.25 1024.40 1024.55 1024.69 1024.84 1025.00 1025.16 1025.32 1025.48 1025.62 1025.73 1025.81 1025.85 1025.86 1025.83
1020.11 1020.31 1020.52 1020.76 1021.00 1021.26 1021.51 1021.76 1021.99 1022.19 1022.35 1022.48 1022.56 1022.60 1022.62 1022.64 1022.66 1022.71 1022.79 1022.93 1023.11 1023.33 1023.58 1023.84 1024.10 1024.34 1024.56 1024.74 1024.89 1025.02 1025.13 1025.23 1025.33 1025.43 1025.53 1025.62 1025.71 1025.78 1025.82 1025.83 1025.80 1025.75 1025.67
1020.66 1020.89 1021.15 1021.43 1021.73 1022.03 1022.33 1022.60 1022.84 1023.04 1023.18 1023.27 1023.32 1023.32 1023.30 1023.29 1023.29 1023.32 1023.40 1023.54 1023.73 1023.96 1024.22 1024.48 1024.74 1024.98 1025.19 1025.35 1025.48 1025.58 1025.66 1025.72 1025.78 1025.84 1025.89 1025.93 1025.96 1025.96 1025.93 1025.88 1025.79 1025.67 1025.54
1021.20 1021.47 1021.77 1022.11 1022.45 1022.79 1023.12 1023.41 1023.66 1023.84 1023.97 1024.02 1024.03 1024.00 1023.95 1023.90 1023.88 1023.90 1023.98 1024.11 1024.30 1024.53 1024.79 1025.05 1025.30 1025.51 1025.70 1025.84 1025.95 1026.02 1026.07 1026.12 1026.15 1026.18 1026.20 1026.20 1026.19 1026.15 1026.07 1025.96 1025.81 1025.64 1025.45
1021.74 1022.04 1022.38 1022.74 1023.13 1023.50 1023.85 1024.15 1024.39 1024.57 1024.67 1024.70 1024.67 1024.60 1024.52 1024.45 1024.41 1024.42 1024.48 1024.61 1024.78 1025.00 1025.23 1025.47 1025.69 1025.88 1026.04 1026.16 1026.24 1026.29 1026.33 1026.36 1026.38 1026.40 1026.41 1026.41 1026.38 1026.31 1026.20 1026.06 1025.87 1025.66 1025.43
1022.25 1022.57 1022.93 1023.33 1023.73 1024.12 1024.48 1024.78 1025.02 1025.17 1025.25 1025.25 1025.20 1025.10 1025.00 1024.91 1024.85 1024.84 1024.88 1024.98 1025.14 1025.32 1025.53 1025.73 1025.92 1026.07 1026.20 1026.29 1026.35 1026.40 1026.43 1026.46 1026.49 1026.51 1026.53 1026.52 1026.49 1026.42 1026.31 1026.15 1025.94 1025.71 1025.45
1022.71 1023.05 1023.42 1023.82 1024.23 1024.62 1024.97 1025.27 1025.49 1025.62 1025.68 1025.66 1025.58 1025.47 1025.35 1025.24 1025.16 1025.13 1025.16 1025.23 1025.35 1025.50 1025.67 1025.83 1025.98 1026.10 1026.20 1026.27 1026.32 1026.36 1026.40 1026.43 1026.47 1026.51 1026.54 1026.56 1026.54 1026.47 1026.37 1026.21 1026.00 1025.76 1025.49
1023.10 1023.43 1023.80 1024.19 1024.58 1024.96 1025.29 1025.56 1025.76 1025.88 1025.92 1025.89 1025.80 1025.68 1025.56 1025.44 1025.35 1025.30 1025.31 1025.36 1025.45 1025.56 1025.69 1025.82 1025.93 1026.02 1026.10 1026.16 1026.20 1026.24 1026.29 1026.33 1026.39 1026.44 1026.49 1026.51 1026.51 1026.46 1026.37 1026.22 1026.03 1025.80 1025.54
1023.39 1023.70 1024.04 1024.40 1024.76 1025.10 1025.41 1025.65 1025.83 1025.93 1025.96 1025.93 1025.85 1025.74 1025.61 1025.50 1025.42 1025.37 1025.36 1025.39 1025.45 1025.54 1025.64 1025.73 1025.82 1025.90 1025.96 1026.01 1026.05 1026.10 1026.15 1026.21 1026.27 1026.34 1026.39 1026.42 1026.43 1026.39 1026.31 1026.18 1026.01 1025.79 1025.55
1023.54 1023.81 1024.12 1024.43 1024.75 1025.05 1025.31 1025.52 1025.68 1025.77 1025.81 1025.79 1025.72 1025.64 1025.54 1025.45 1025.38 1025.34 1025.33 1025.35 1025.40 1025.47 1025.55 1025.63 1025.70 1025.77 1025.82 1025.87 1025.92 1025.97 1026.02 1026.08 1026.15 1026.21 1026.27 1026.30 1026.31 1026.28 1026.20 1026.09 1025.93 1025.74 1025.51
1023.54 1023.77 1024.03 1024.29 1024.55 1024.80 1025.02 1025.20 1025.34 1025.44 1025.48 1025.49 1025.46 1025.42 1025.36 1025.30 1025.26 1025.25 1025.25 1025.28 1025.32 1025.38 1025.45 1025.51 1025.58 1025.64 1025.70 1025.75 1025.80 1025.85 1025.91 1025.97 1026.02 1026.08 1026.12 1026.15 1026.15 1026.11 1026.04 1025.93 1025.79 1025.61 1025.41
1023.40 1023.59 1023.79 1023.99 1024.19 1024.39 1024.57 1024.73 1024.86 1024.96 1025.03 1025.07 1025.09 1025.10 1025.09 1025.08 1025.08 1025.10 1025.12 1025.16 1025.20 1025.26 1025.32 1025.38 1025.44 1025.49 1025.55 1025.60 1025.65 1025.71 1025.76 1025.82 1025.87 1025.91 1025.94 1025.95 1025.94 1025.89 1025.82 1025.72 1025.58 1025.41 1025.22
1023.16 1023.30 1023.45 1023.59 1023.74 1023.89 1024.04 1024.18 1024.30 1024.41 1024.51 1024.59 1024.66 1024.71 1024.76 1024.80 1024.84 1024.88 1024.93 1024.97 1025.02 1025.07 1025.12 1025.17 1025.22 1025.28 1025.33 1025.38 1025.43 1025.48 1025.54 1025.58 1025.63 1025.66 1025.68 1025.68 1025.66 1025.61 1025.53 1025.42 1025.29 1025.12 1024.93
1022.86 1022.96 1023.06 1023.16 1023.26 1023.37 1023.48 1023.60 1023.72 1023.84 1023.96 1024.07 1024.18 1024.28 1024.38 1024.46 1024.53 1024.59 1024.65 1024.70 1024.74 1024.78 1024.82 1024.86 1024.89 1024.93 1024.98 1025.02 1025.07 1025.13 1025.18 1025.23 1025.27 1025.30 1025.32 1025.32 1025.29 1025.24 1025.16 1025.04 1024.90 1024.73 1024.51
1022.56 1022.62 1022.68 1022.74 1022.80 1022.87 1022.95 1023.05 1023.16 1023.28 1023.41 1023.55 1023.69 1023.82 1023.94 1024.05 1024.14 1024.21 1024.27 1024.31 1024.34 1024.36 1024.38 1024.39 1024.41 1024.43 1024.46 1024.50 1024.55 1024.61 1024.66 1024.72 1024.77 1024.81 1024.83 1024.84 1024.81 1024.76 1024.68 1024.56 1024.40 1024.21 1023.96
Thickness
5616 5616 5616 5616 5616 5617 5617 5617 5618 5619 5620 5622 5623 5624 5626 5627 5628 5629 5630 5631 5632 5633 5634 5635 5635 5636 5635 5635 5634 5632 5629 5626 5618 5608 5603 5598 5594 5592 5589 5586 5584 5582 5579
5604 5604 5603 5603 5604 5604 5605 5606 5607 5608 5610 5611 5613 5614 5616 5617 5618 5619 5620 5621 5622 5624 5624 5625 5625 5625 5626 5625 5624 5622 5619 5617 5612 5602 5593 5588 5585 5583 5580 5578 5574 5572 5569
5591 5591 5590 5591 5591 5592 5593 5594 5596 5597 5599 5600 5602 5604 5605 5607 5608 5609 5611 5612 5613 5614 5615 5615 5615 5616 5616 5615 5613 5611 5609 5605 5601 5595 5586 5581 5577 5574 5572 5569 5566 5563 5561
5580 5579 5578 5578 5579 5580 5581 5582 5584 5586 5587 5589 5591 5593 5595 5597 5598 5600 5601 5602 5603 5604 5605 5606 5606 5606 5605 5604 5603 5601 5598 5594 5589 5584 5578 5573 5570 5567 5564 5560 5556 5555 5553
5569 5568 5567 5567 5568 5568 5569 5571 5572 5574 5576 5578 5581 5583 5585 5587 5588 5590 5591 5592 5593 5594 5595 5596 5596 5597 5596 5596 5594 5591 5589 5585 5581 5576 5570 5566 5562 5558 5555 5552 5549 5547 5545
5559 5558 5557 5557 5558 5558 5559 5560 5562 5563 5565 5568 5570 5572 5575 5576 5577 5580 5581 5582 5583 5583 5584 5585 5586 5586 5586 5586 5584 5583 5581 5578 5572 5568 5563 5559 5555 5552 5549 5547 5542 5539 5537
5550 5549 5548 5548 5548 5548 5549 5550 5551 5552 5555 5557 5559 5562 5563 5565 5567 5570 5571 5572 5572 5573 5573 5575 5576 5576 5576 5575 5574 5573 5571 5569 5568 5563 5558 5554 5551 5548 5545 5541 5537 5535 5533
5541 5540 5540 5540 5539 5539 5539 5540 5541 5543 5545 5547 5549 5552 5553 5555 5558 5560 5562 5562 5562 5562 5563 5564 5565 5565 5566 5566 5565 5563 5560 5559 5558 5556 5553 5550 5547 5545 5542 5538 5535 5531 5529
5533 5532 5532 5532 5531 5531 5531 5531 5532 5534 5536 5538 5540 5542 5544 5546 5549 5552 5553 5553 5552 5552 5553 5554 5555 5555 5556 5558 5557 5553 5551 5548 5548 5548 5546 5544 5542 5540 5537 5534 5529 5525 5522
5526 5525 5525 5526 5525 5524 5524 5525 5526 5527 5529 5531 5533 5534 5536 5538 5541 5543 5545 5545 5544 5543 5543 5545 5546 5547 5548 5549 5548 5546 5542 5540 5541 5539 5538 5537 5536 5534 5532 5530 5526 5521 5517
5520 5520 5520 5520 5519 5519 5519 5520 5521 5522 5523 5524 5525 5526 5528 5530 5533 5536 5538 5538 5537 5536 5535 5535 5537 5539 5540 5540 5540 5539 5537 5536 5535 5533 5532 5531 5530 5529 5528 5526 5525 5521 5517
5515 5515 5514 5515 5516 5516 5515 5515 5516 5517 5517 5517 5519 5519 5521 5524 5527 5529 5531 5532 5532 5531 5529 5529 5530 5532 5533 5534 5534 5533 5533 5532 5530 5528 5526 5524 5524 5524 5524 5523 5522 5521 5519
5511 5510 5510 5510 5511 5511 5512 5512 5512 5512 5513 5513 5514 5514 5515 5517 5520 5523 5524 5525 5526 5525 5524 5526 5527 5528 5528 5528 5529 5529 5529 5527 5525 5523 5521 5520 5520 5521 5521 5521 5520 5519 5519
5507 5507 5506 5506 5506 5507 5508 5508 5508 5508 5509 5510 5510 5510 5510 5512 5514 5517 5519 5520 5521 5521 5521 5523 5524 5524 5525 5525 5525 5525 5525 5524 5522 5520 5518 5518 5519 5519 5518 5518 5517 5516 5515
5505 5504 5504 5503 5503 5503 5503 5503 5505 5505 5507 5508 5508 5509 5509 5510 5512 5515 5516 5517 5517 5518 5520 5520 5520 5520 5520 5520 5520 5521 5521 5521 5519 5518 5518 5517 5517 5517 5517 5516 5515 5513 5512
5503 5503 5502 5501 5501 5501 5501 5501 5503 5505 5507 5509 5510 5511 5511 5512 5513 5514 5515 5516 5518 5519 5518 5516 5516 5517 5517 5518 5518 5518 5519 5519 5519 5519 5518 5517 5516 5516 5515 5515 5514 5513 5511
5504 5503 5503 5502 5502 5502 5502 5502 5501 5503 5505 5507 5509 5510 5511 5512 5513 5514 5515 5517 5518 5519 5517 5516 5516 5517 5518 5518 5518 5518 5519 5519 5519 5519 5518 5517 5517 5516 5516 5515 5514 5513 5512
5507 5507 5506 5505 5505 5504 5504 5504 5504 5504 5504 5505 5508 5510 5512 5513 5514 5515 5517 5518 5518 5518 5518 5518 5519 5520 5520 5521 5521 5520 5520 5521 5520 5520 5519 5518 5518 5517 5516 5515 5514 5513 5512
5510 5510 5510 5509 5509 5508 5508 5507 5507 5507 5507 5508 5509 5511 5514 5515 5517 5518 5519 5518 5519 5519 5521 5522 5524 5524 5524 5524 5524 5523 5523 5522 5522 5521 5520 5520 5519 5518 5517 5516 5515 5515 5513
5514 5515 5515 5514 5514 5513 5513 5512 5511 5511 5511 5512 5513 5515 5517 5518 5518 5520 5521 5522 5522 5524 5525 5527 5528 5528 5528 5527 5527 5526 5526 5525 5524 5523 5522 5522 5521 5520 5518 5518 5516 5515 5514
5518 5519 5520 5519 5519 5519 5519 5518 5518 5517 5517 5518 5519 5522 5523 5522 5523 5524 5526 5527 5528 5529 5530 5531 5532 5532 5532 5531 5531 5530 5530 5528 5527 5526 5525 5524 5523 5522 5521 5520 5519 5518 5517
5523 5523 5523 5524 5524 5525 5525 5525 5525 5524 5525 5526 5527 5528 5529 5528 5529 5530 5532 5534 5535 5536 5537 5537 5536 5537 5537 5537 5536 5535 5533 5532 5531 5530 5529 5528 5527 5525 5524 5523 5522 5521 5519
5529 5529 5530 5530 5531 5532 5532 5532 5532 5532 5533 5533 5534 5535 5535 5535 5536 5537 5538 5540 5541 5542 5542 5542 5542 5542 5542 5542 5542 5541 5539 5537 5537 5536 5533 5532 5530 5529 5527 5526 5525 5523 5522
5536 5536 5536 5537 5537 5538 5538 5539 5540 5540 5541 5541 5542 5542 5542 5543 5544 5544 5545 5546 5547 5548 5548 5548 5548 5547 5547 5546 5546 5545 5544 5543 5542 5540 5539 5536 5535 5533 5531 5529 5527 5526 5524
5543 5543 5543 5544 5545 5545 5545 5546 5547 5548 5549 5549 5550 5550 5550 5551 5551 5551 5552 5553 5553 5553 5553 5554 5553 5553 5552 5552 5551 5550 5549 5548 5547 5545 5543 5541 5538 5536 5534 5532 5530 5528 5526
5550 5550 5550 5551 5551 5552 5552 5553 5554 5555 5555 5557 5558 5558 5558 5558 5558 5559 5559 5559 5559 5559 5559 5560 5559 5559 5558 5558 5557 5556 5555 5553 5552 5550 5547 5544 5542 5540 5537 5535 5533 5531 5528